Temp
-9 -8 -8 -8 -8 -7 -7 -7 -7 -7 -7 -7 -7 -7 -7 -7 -7 -8 -8 -8 -8 -8 -8 -8 -8 -8 -8 -8 -9 -9 -9 -9 -9 -10 -10 -10 -10 -10 -10 -10 -11 -11 -11 -11
-8 -8 -8 -8 -8 -8 -7 -7 -7 -7 -7 -7 -7 -7 -7 -7 -7 -7 -7 -8 -8 -8 -9 -9 -9 -9 -9 -9 -10 -10 -10 -10 -10 -10 -10 -10 -11 -10 -10 -10 -10 -11 -12 -12
-8 -8 -8 -8 -8 -8 -7 -7 -7 -7 -7 -7 -7 -7 -7 -7 -8 -8 -8 -8 -9 -9 -9 -9 -9 -9 -9 -9 -10 -10 -10 -10 -11 -11 -12 -12 -11 -11 -11 -11 -11 -11 -11 -12
-8 -8 -8 -8 -7 -7 -7 -7 -7 -7 -7 -7 -7 -7 -7 -8 -9 -8 -9 -9 -8 -8 -9 -9 -9 -9 -9 -9 -10 -10 -10 -10 -11 -12 -12 -13 -13 -13 -13 -12 -13 -13 -12 -12
-9 -8 -8 -8 -8 -8 -8 -7 -7 -7 -7 -7 -7 -7 -8 -9 -9 -8 -7 -7 -7 -8 -8 -8 -9 -9 -9 -9 -10 -10 -11 -12 -12 -13 -14 -14 -14 -14 -14 -14 -14 -14 -14 -14
-8 -8 -8 -8 -8 -8 -8 -7 -7 -7 -7 -8 -8 -8 -8 -8 -8 -7 -7 -7 -8 -8 -8 -9 -9 -9 -10 -10 -10 -11 -11 -13 -14 -15 -15 -15 -15 -15 -15 -15 -15 -15 -15 -15
-8 -8 -8 -8 -8 -8 -8 -8 -8 -8 -8 -8 -8 -7 -8 -8 -8 -8 -8 -8 -9 -9 -9 -10 -10 -10 -10 -11 -11 -12 -12 -13 -14 -15 -15 -15 -15 -15 -16 -16 -16 -16 -16 -16
-9 -9 -8 -8 -8 -8 -8 -8 -9 -9 -8 -8 -8 -8 -8 -9 -8 -8 -9 -9 -10 -10 -10 -10 -11 -11 -11 -12 -12 -12 -13 -14 -15 -15 -15 -16 -16 -16 -16 -16 -16 -17 -17 -17
-9 -9 -9 -9 -9 -8 -9 -9 -9 -9 -8 -8 -8 -8 -8 -9 -9 -9 -9 -10 -10 -11 -11 -12 -12 -12 -12 -13 -14 -15 -16 -16 -17 -17 -16 -17 -17 -17 -17 -18 -18 -18 -18 -18
-9 -9 -9 -9 -9 -9 -10 -10 -9 -9 -9 -8 -8 -9 -10 -10 -10 -10 -11 -11 -11 -12 -12 -13 -13 -14 -15 -15 -16 -17 -17 -17 -17 -16 -17 -17 -17 -18 -19 -19 -19 -19 -19 -19
-9 -9 -9 -9 -9 -9 -10 -10 -9 -10 -10 -10 -10 -9 -11 -11 -11 -11 -11 -12 -12 -12 -13 -14 -14 -15 -16 -17 -17 -17 -17 -17 -17 -17 -18 -18 -19 -19 -19 -20 -20 -20 -21 -21
-9 -9 -9 -9 -10 -10 -10 -10 -10 -10 -10 -11 -11 -9 -12 -11 -11 -12 -12 -12 -13 -14 -14 -15 -16 -16 -17 -17 -18 -18 -17 -18 -18 -19 -19 -19 -19 -20 -21 -22 -22 -22 -22 -23
-10 -10 -10 -10 -10 -10 -10 -11 -11 -11 -11 -11 -11 -12 -12 -12 -12 -12 -13 -13 -14 -15 -16 -16 -16 -16 -17 -18 -18 -18 -18 -18 -19 -20 -21 -21 -22 -22 -23 -23 -23 -23 -23 -24
-10 -10 -10 -11 -10 -11 -11 -11 -12 -12 -12 -12 -12 -12 -14 -13 -13 -14 -14 -15 -16 -16 -16 -16 -17 -18 -18 -18 -18 -18 -19 -19 -20 -21 -23 -23 -23 -24 -24 -24 -24 -24 -24 -23
-11 -11 -11 -11 -11 -11 -12 -12 -12 -12 -13 -13 -13 -13 -14 -14 -14 -15 -15 -16 -16 -16 -17 -17 -18 -18 -18 -19 -19 -19 -20 -21 -22 -23 -24 -25 -26 -25 -25 -25 -25 -25 -24 -24
-11 -11 -11 -12 -12 -12 -12 -13 -13 -13 -13 -13 -14 -13 -14 -15 -15 -15 -16 -16 -16 -17 -17 -17 -18 -19 -19 -19 -19 -20 -21 -21 -23 -24 -25 -26 -27 -27 -27 -26 -26 -26 -26 -26
-12 -12 -12 -12 -13 -12 -12 -13 -14 -14 -14 -15 -14 -15 -15 -15 -15 -16 -16 -17 -17 -17 -18 -18 -18 -19 -19 -19 -20 -21 -21 -22 -22 -23 -25 -26 -26 -27 -27 -27 -27 -27 -27 -27
-12 -13 -13 -13 -13 -12 -13 -14 -14 -14 -14 -15 -15 -16 -16 -16 -15 -17 -18 -17 -18 -18 -18 -19 -19 -19 -20 -20 -21 -21 -22 -22 -23 -23 -24 -26 -26 -27 -27 -27 -27 -27 -27 -27
-14 -14 -14 -13 -13 -12 -13 -15 -14 -14 -13 -16 -16 -16 -16 -16 -16 -17 -18 -18 -18 -18 -19 -19 -20 -20 -20 -22 -22 -22 -22 -23 -23 -24 -24 -25 -26 -26 -26 -27 -27 -27 -27 -27
-14 -14 -14 -14 -14 -13 -14 -15 -15 -15 -14 -15 -16 -16 -16 -16 -16 -17 -18 -18 -18 -19 -20 -20 -20 -20 -21 -22 -23 -23 -23 -23 -24 -24 -25 -25 -25 -26 -26 -26 -27 -27 -27 -27
-15 -15 -15 -15 -15 -14 -16 -16 -16 -16 -16 -16 -16 -16 -16 -17 -18 -18 -18 -19 -19 -20 -20 -20 -20 -21 -22 -23 -23 -22 -23 -23 -24 -25 -25 -25 -26 -26 -26 -26 -26 -27 -27 -27
-16 -16 -16 -16 -16 -16 -17 -17 -17 -17 -16 -17 -17 -17 -18 -18 -18 -19 -19 -19 -20 -20 -20 -20 -20 -21 -22 -23 -23 -23 -23 -24 -24 -25 -25 -26 -26 -26 -27 -27 -26 -27 -27 -27
-16 -17 -17 -17 -16 -18 -18 -17 -17 -17 -17 -18 -18 -19 -19 -19 -19 -19 -19 -20 -20 -20 -20 -20 -21 -22 -23 -23 -23 -23 -24 -24 -24 -25 -25 -26 -26 -27 -27 -27 -27 -26 -27 -27
-16 -17 -18 -17 -16 -17 -17 -17 -18 -18 -18 -19 -19 -19 -19 -19 -20 -19 -20 -20 -20 -21 -20 -21 -22 -22 -23 -23 -23 -24 -24 -24 -25 -25 -26 -26 -27 -27 -27 -27 -27 -27 -27 -27
-18 -18 -19 -17 -17 -16 -17 -18 -19 -19 -20 -19 -20 -20 -20 -20 -20 -20 -20 -21 -21 -20 -20 -21 -22 -23 -23 -23 -23 -24 -24 -24 -25 -25 -25 -26 -27 -27 -27 -27 -27 -27 -27 -26
-20 -20 -19 -18 -19 -18 -18 -19 -19 -19 -20 -20 -20 -20 -20 -20 -20 -20 -21 -21 -21 -20 -21 -22 -23 -23 -23 -23 -23 -24 -24 -25 -25 -26 -26 -26 -27 -27 -27 -27 -27 -26 -26 -25
Height
5873 5874 5874 5874 5874 5875 5875 5875 5873 5872 5871 5871 5870 5870 5870 5868 5865 5862 5859 5856 5853 5851 5849 5846 5843 5840 5837 5834 5831 5827 5823 5820 5816 5812 5809 5806 5805 5803 5802 5799 5796 5794 5793 5792
5871 5871 5871 5871 5872 5872 5871 5871 5870 5869 5867 5867 5866 5866 5865 5863 5860 5857 5853 5850 5847 5844 5841 5838 5834 5831 5827 5823 5819 5816 5812 5808 5804 5801 5797 5793 5790 5787 5784 5782 5780 5778 5777 5776
5867 5868 5868 5868 5868 5869 5868 5867 5866 5865 5862 5861 5859 5860 5859 5856 5852 5849 5845 5842 5838 5835 5831 5828 5824 5820 5816 5812 5807 5802 5797 5793 5789 5784 5780 5777 5773 5769 5766 5764 5760 5758 5757 5757
5865 5865 5865 5865 5865 5865 5864 5863 5862 5860 5858 5856 5854 5851 5854 5849 5845 5840 5835 5832 5828 5825 5821 5817 5812 5807 5803 5798 5792 5787 5782 5777 5772 5767 5762 5759 5753 5750 5746 5742 5739 5737 5735 5733
5863 5862 5862 5862 5861 5861 5860 5858 5857 5855 5852 5851 5847 5841 5844 5839 5834 5830 5826 5822 5819 5816 5812 5806 5801 5795 5790 5784 5779 5773 5767 5760 5754 5749 5744 5739 5735 5732 5729 5724 5721 5717 5716 5713
5859 5859 5859 5858 5857 5856 5855 5853 5851 5850 5848 5846 5841 5835 5833 5827 5824 5821 5817 5813 5808 5803 5798 5792 5787 5782 5776 5770 5764 5758 5751 5744 5738 5732 5726 5721 5715 5710 5707 5703 5701 5699 5698 5694
5856 5855 5855 5854 5853 5851 5849 5848 5845 5844 5841 5837 5832 5828 5826 5820 5815 5811 5806 5802 5796 5790 5784 5778 5771 5765 5758 5752 5746 5740 5733 5726 5719 5712 5706 5699 5693 5688 5682 5678 5674 5673 5671 5670
5852 5853 5851 5850 5848 5846 5844 5843 5839 5832 5830 5828 5824 5820 5816 5812 5805 5800 5795 5790 5784 5777 5770 5763 5756 5748 5741 5733 5726 5718 5711 5704 5696 5689 5682 5675 5668 5663 5656 5650 5645 5642 5640 5641
5848 5847 5846 5844 5842 5842 5840 5836 5832 5826 5822 5817 5815 5813 5808 5802 5793 5788 5783 5777 5771 5763 5756 5749 5740 5731 5722 5714 5706 5696 5688 5679 5673 5666 5659 5652 5642 5633 5627 5621 5616 5612 5609 5609
5843 5842 5840 5839 5838 5836 5832 5828 5823 5818 5812 5806 5805 5803 5798 5789 5782 5776 5771 5764 5758 5749 5742 5732 5722 5713 5704 5694 5686 5677 5668 5657 5650 5642 5633 5625 5613 5604 5597 5593 5587 5582 5580 5578
5838 5837 5836 5834 5831 5828 5825 5819 5815 5810 5806 5799 5792 5793 5786 5776 5770 5763 5758 5750 5743 5735 5725 5715 5705 5695 5685 5676 5666 5656 5645 5635 5627 5616 5605 5596 5586 5576 5570 5565 5560 5555 5551 5549
5831 5830 5828 5826 5823 5819 5815 5811 5806 5801 5797 5792 5783 5784 5773 5768 5758 5751 5744 5736 5727 5719 5708 5698 5689 5679 5669 5659 5650 5640 5629 5614 5601 5587 5577 5568 5558 5550 5543 5537 5534 5531 5528 5526
5825 5823 5820 5817 5816 5811 5806 5801 5796 5791 5786 5782 5774 5771 5762 5754 5748 5741 5731 5723 5713 5702 5693 5685 5674 5663 5652 5641 5630 5618 5606 5590 5576 5561 5549 5539 5530 5522 5518 5514 5510 5508 5506 5507
5815 5814 5812 5807 5803 5799 5796 5791 5786 5781 5774 5768 5768 5758 5754 5740 5735 5727 5719 5709 5701 5692 5681 5669 5657 5644 5632 5620 5606 5591 5578 5562 5547 5534 5524 5514 5506 5498 5494 5491 5489 5487 5485 5486
5806 5804 5801 5797 5793 5789 5785 5780 5773 5769 5762 5756 5754 5747 5739 5731 5722 5714 5706 5696 5685 5673 5661 5648 5636 5625 5614 5602 5587 5571 5556 5540 5523 5510 5500 5490 5481 5475 5470 5467 5465 5463 5463 5465
5796 5792 5789 5788 5783 5778 5774 5769 5764 5759 5752 5744 5738 5735 5726 5719 5709 5700 5691 5679 5670 5660 5649 5636 5624 5611 5597 5581 5566 5551 5536 5520 5505 5492 5479 5469 5461 5455 5450 5447 5444 5442 5443 5444
5785 5780 5776 5774 5772 5767 5764 5757 5750 5747 5741 5732 5727 5720 5712 5706 5696 5687 5676 5665 5655 5643 5630 5618 5608 5595 5579 5562 5544 5531 5518 5504 5490 5475 5462 5451 5441 5436 5432 5428 5427 5426 5425 5426
5772 5767 5762 5759 5757 5754 5750 5744 5738 5733 5730 5721 5714 5706 5698 5690 5681 5671 5659 5648 5638 5626 5615 5603 5589 5578 5562 5544 5529 5515 5501 5488 5475 5462 5449 5437 5426 5419 5415 5412 5411 5410 5409 5410
5762 5756 5750 5747 5743 5742 5741 5730 5723 5717 5722 5707 5700 5692 5683 5674 5667 5660 5645 5635 5622 5610 5598 5584 5572 5557 5543 5526 5514 5503 5492 5477 5462 5449 5437 5425 5414 5406 5401 5398 5397 5396 5394 5394
5750 5745 5741 5735 5728 5725 5725 5715 5708 5702 5702 5696 5687 5678 5668 5659 5651 5647 5634 5622 5611 5598 5585 5571 5557 5541 5526 5513 5500 5489 5477 5463 5451 5438 5425 5413 5402 5394 5388 5384 5381 5380 5379 5382
5737 5732 5727 5721 5713 5715 5711 5700 5693 5690 5686 5680 5672 5663 5654 5646 5636 5630 5620 5612 5599 5587 5576 5564 5548 5528 5512 5500 5489 5477 5463 5449 5437 5426 5414 5403 5392 5383 5376 5372 5369 5367 5369 5373
5723 5719 5714 5709 5703 5699 5697 5687 5682 5678 5671 5664 5657 5650 5642 5634 5626 5616 5606 5595 5584 5575 5566 5553 5536 5520 5505 5492 5479 5466 5451 5439 5426 5414 5404 5393 5383 5374 5367 5363 5361 5360 5363 5367
5709 5707 5699 5698 5695 5686 5679 5673 5669 5665 5659 5651 5645 5638 5631 5623 5615 5606 5595 5582 5571 5560 5550 5536 5523 5510 5495 5482 5468 5455 5442 5430 5417 5405 5395 5385 5375 5367 5359 5355 5354 5356 5358 5363
5697 5692 5687 5683 5688 5672 5664 5661 5657 5652 5646 5639 5632 5625 5619 5612 5603 5593 5583 5573 5563 5551 5539 5525 5510 5498 5487 5474 5460 5445 5433 5421 5408 5397 5388 5379 5370 5362 5354 5350 5350 5352 5356 5363
5688 5678 5675 5672 5664 5659 5657 5651 5645 5639 5633 5627 5621 5613 5607 5599 5590 5581 5572 5563 5553 5541 5528 5513 5500 5489 5478 5466 5453 5439 5425 5412 5399 5389 5381 5374 5367 5361 5354 5350 5351 5354 5359 5365
5674 5670 5662 5653 5648 5645 5646 5640 5633 5627 5621 5615 5609 5602 5594 5586 5579 5571 5561 5552 5541 5531 5518 5504 5491 5480 5470 5458 5445 5432 5418 5404 5391 5383 5377 5372 5366 5363 5358 5356 5357 5359 5364 5367
Wind_Speed
16 15 13 11 12 11 11 12 15 17 17 18 21 22 23 25 27 29 30 31 32 33 35 36 38 39 40 42 44 46 48 49 50 52 54 55 56 55 55 52 47 52 52 52
15 13 12 11 10 10 11 13 16 18 20 21 22 22 22 23 25 26 27 29 29 30 32 35 38 40 41 43 44 46 48 51 53 56 57 58 59 61 61 61 61 56 57 55
13 12 11 10 10 11 13 15 17 19 22 23 26 25 24 26 26 27 29 29 31 35 39 41 43 46 48 50 53 55 57 56 55 55 56 59 62 66 67 68 70 72 70 68
12 12 12 12 12 13 16 17 19 20 22 25 27 30 24 26 26 30 32 35 40 44 46 49 51 53 55 58 60 62 64 64 64 63 60 58 61 64 68 71 71 73 76 77
12 14 14 15 15 15 18 19 19 21 24 26 28 34 27 28 31 37 43 45 48 50 52 54 56 58 60 62 64 65 66 66 63 60 59 59 60 61 63 69 73 73 72 75
15 16 16 17 16 17 19 21 23 24 25 25 29 33 33 37 39 44 47 50 52 54 56 58 59 60 62 65 67 69 70 66 62 61 61 62 64 65 66 68 69 69 71 76
17 16 17 18 19 20 22 24 27 27 27 30 33 37 37 41 44 48 51 53 55 57 59 61 63 65 68 70 71 72 72 71 69 68 68 69 70 72 74 76 77 76 77 78
18 19 19 20 21 22 25 27 29 34 34 35 38 41 44 44 50 53 54 56 59 59 63 64 67 70 72 74 75 76 78 79 79 76 73 72 75 80 84 85 82 78 77 77
20 20 21 22 23 27 28 29 32 35 38 42 44 43 46 49 53 55 59 59 61 63 64 67 70 74 75 75 76 79 80 78 75 74 75 79 86 87 86 83 80 79 80 80
21 22 23 25 28 30 31 33 36 39 44 47 48 47 48 52 56 59 60 62 62 65 68 70 73 74 75 77 78 78 77 77 78 79 84 90 89 84 81 79 81 82 81 80
23 24 27 30 31 33 34 37 40 43 44 49 53 51 51 54 58 61 61 64 66 69 71 74 74 76 77 78 81 80 80 83 84 90 91 87 85 84 83 82 81 77 72 66
26 28 31 33 34 36 37 40 42 46 47 49 52 53 52 55 59 62 64 67 68 70 73 73 75 78 79 80 78 79 82 89 93 93 90 89 89 86 82 73 69 65 64 62
30 32 35 38 39 40 40 43 45 48 49 50 54 53 55 57 62 63 65 66 69 71 72 75 78 80 80 79 80 83 89 94 92 92 89 84 78 73 68 63 62 61 61 58
36 37 39 42 44 44 45 47 48 50 53 56 53 58 52 60 62 62 64 67 67 70 73 77 80 80 78 81 85 92 94 94 90 85 80 76 73 71 68 66 63 59 58 58
41 41 42 44 46 47 48 50 52 53 56 59 57 59 57 61 62 64 65 66 71 74 78 80 81 78 80 84 89 92 91 86 84 80 74 68 65 61 59 58 58 57 56 54
44 46 47 47 48 51 52 51 52 57 57 60 60 60 63 65 66 65 67 71 73 74 78 79 75 77 82 88 90 87 80 71 70 69 66 62 58 55 54 51 51 53 52 50
46 48 50 51 50 53 54 56 57 57 58 58 60 62 65 66 66 67 67 69 72 78 78 74 75 78 85 88 86 79 66 66 65 65 62 59 57 52 49 49 48 49 49 45
49 50 53 55 55 58 59 58 58 59 57 57 61 64 65 66 68 65 67 72 75 75 73 74 77 82 85 84 77 68 66 66 64 63 60 56 54 49 44 41 41 40 44 44
49 52 56 58 60 62 58 57 61 62 57 59 63 64 64 67 66 65 68 72 74 72 74 75 80 84 84 76 71 62 64 64 63 61 59 56 52 48 41 37 41 42 43 44
52 54 57 59 62 64 60 59 61 63 61 61 62 62 65 66 68 64 69 71 68 71 72 76 81 83 77 71 65 64 63 64 64 60 57 54 52 48 45 39 35 38 39 38
56 58 59 59 62 63 56 58 60 60 62 61 61 62 65 66 66 68 68 65 68 68 70 73 78 78 71 65 62 64 68 66 63 59 55 52 49 46 41 39 34 30 30 30
56 57 56 56 57 57 52 56 60 60 60 61 62 63 64 64 65 65 66 68 66 66 68 73 77 71 62 61 62 68 64 58 56 54 52 48 46 41 37 32 26 24 23 25
53 51 54 53 54 51 51 57 58 58 59 59 62 61 60 63 62 64 65 63 65 68 70 75 73 63 57 59 61 67 57 56 57 49 46 45 42 39 34 26 23 19 19 14
47 47 46 49 47 54 59 59 57 55 57 59 58 59 60 60 63 64 62 61 64 66 70 73 67 57 55 58 60 63 58 58 56 45 42 41 37 36 28 18 14 11 11 14
43 45 42 49 55 56 53 50 52 52 53 54 56 57 59 62 62 60 59 61 63 64 69 69 60 52 55 56 60 60 58 60 48 40 35 34 30 28 22 10 2 11 13 11
40 41 45 54 55 55 46 44 48 50 52 53 54 57 61 59 57 56 58 61 63 65 67 62 56 52 55 57 60 57 57 54 49 34 25 26 23 19 13 4 10 12 9 6
Wind_Direction
241 243 247 243 248 257 260 265 271 280 287 295 299 302 304 305 303 298 294 293 293 292 292 292 292 292 292 291 290 289 287 286 285 284 282 279 276 272 265 263 263 257 256 257
239 243 242 246 249 255 260 268 277 287 294 299 300 301 304 304 299 298 299 298 299 298 299 298 299 300 299 298 295 291 288 287 285 283 281 277 275 274 271 266 258 256 253 258
238 242 244 248 255 263 270 278 285 291 295 299 300 301 307 307 303 303 302 305 309 310 310 308 306 305 303 302 301 299 298 296 292 288 281 277 275 273 269 266 264 262 258 254
233 238 250 257 264 272 281 285 292 294 296 301 301 300 304 302 303 305 309 314 316 315 311 309 307 306 305 304 302 301 300 298 296 293 288 280 274 269 269 270 268 264 264 261
238 248 253 261 271 280 285 287 292 297 299 299 300 302 315 313 311 314 315 313 310 308 307 306 306 305 305 304 303 302 301 299 296 292 288 285 281 279 274 270 269 269 269 267
246 253 262 267 276 281 284 290 292 291 293 298 303 310 325 317 315 311 307 306 305 306 306 305 304 304 303 302 301 300 300 297 294 292 290 288 286 284 282 279 276 272 270 270
258 260 265 270 277 285 289 290 289 292 299 308 313 312 314 312 309 306 305 305 306 306 305 304 305 304 303 302 301 299 298 296 293 293 291 287 285 287 287 286 282 276 272 269
260 265 272 280 285 292 292 290 295 305 310 312 312 313 311 311 307 308 307 307 306 306 305 306 306 305 304 302 301 301 299 297 296 295 291 290 290 291 290 287 283 279 274 269
270 276 281 285 291 289 290 294 301 306 307 310 311 311 309 311 307 306 306 307 307 307 306 305 305 305 304 304 303 302 302 300 298 296 295 297 297 294 290 287 284 280 278 276
277 279 283 288 289 292 298 303 306 310 310 309 309 308 312 309 308 308 308 308 308 307 307 307 307 306 306 306 304 302 301 300 299 299 299 299 296 294 291 288 287 284 283 280
276 283 289 290 293 298 302 306 308 308 309 308 308 311 315 310 311 308 310 309 308 308 308 307 308 309 307 305 305 306 307 306 304 304 301 298 297 295 292 289 287 286 283 279
286 289 291 293 297 300 302 305 308 307 307 307 306 313 310 311 309 312 310 309 309 308 308 309 309 307 306 307 307 306 307 308 307 304 302 299 296 293 291 289 284 280 278 276
285 288 291 293 295 299 305 305 306 305 305 307 305 311 312 311 310 312 311 309 310 309 308 307 307 308 307 306 308 310 310 308 306 304 301 299 296 294 290 285 280 277 275 271
287 289 292 295 298 302 304 304 304 305 305 304 308 306 314 309 312 312 310 309 307 306 305 307 309 309 310 312 314 314 313 310 308 305 303 299 295 290 287 284 283 280 276 271
288 290 293 295 298 299 301 303 305 306 304 303 304 304 309 311 311 310 310 308 307 308 311 312 311 312 313 315 316 314 312 313 312 310 306 301 296 291 287 282 277 275 271 269
289 292 292 293 295 296 299 304 302 303 303 301 302 303 306 310 311 310 309 308 310 310 310 312 313 314 316 317 315 316 317 319 319 317 312 306 300 294 288 283 278 273 271 269
289 291 292 292 294 295 298 302 302 302 301 302 303 305 307 310 309 310 309 310 310 312 314 314 314 318 319 317 318 320 320 319 323 326 322 315 307 298 293 285 280 274 271 268
290 291 291 292 294 295 299 301 300 301 303 304 304 307 309 309 311 312 310 312 314 314 313 315 318 320 319 320 320 320 320 323 323 324 326 319 314 304 296 284 279 279 275 266
290 291 293 295 295 296 299 301 302 303 304 303 306 309 310 312 312 312 312 314 315 315 316 319 321 321 322 321 321 321 322 320 321 321 321 322 316 309 301 289 277 279 276 269
293 294 295 297 296 297 301 303 303 303 303 305 308 310 312 311 312 313 313 315 314 315 319 320 321 323 323 322 322 322 321 318 318 318 318 317 320 311 301 295 284 278 271 265
293 293 294 295 294 296 305 302 299 304 306 307 310 312 312 313 313 314 314 313 314 318 320 321 323 323 323 323 323 323 322 321 318 316 316 316 317 316 306 298 292 277 269 264
292 293 293 294 297 302 302 299 298 302 306 309 311 310 310 311 312 313 314 315 317 320 321 322 323 324 322 322 324 327 326 327 324 315 316 317 317 319 311 299 290 279 270 265
293 294 294 295 295 299 297 293 298 303 306 306 307 308 309 309 311 313 315 317 319 321 322 324 324 325 322 325 326 329 326 326 324 321 316 319 320 323 319 301 285 277 275 232
299 299 296 293 295 291 290 297 302 305 304 304 305 306 307 310 312 315 316 317 321 321 324 324 326 325 324 326 327 327 324 325 327 323 320 323 323 329 329 313 292 271 198 182
305 298 298 298 291 292 299 303 303 301 301 302 304 306 309 312 313 315 316 319 321 321 324 325 326 324 327 328 328 327 327 331 330 322 323 325 328 338 344 329 238 163 165 164
300 301 297 289 290 296 300 297 295 297 300 302 305 308 310 311 313 315 318 320 321 322 326 327 326 324 326 327 329 330 331 335 332 326 328 335 334 346 5 76 144 149 136 142